カタログに戻る

STARLINK-36773

運用中通信SSO
NORAD 67801·PAYLOAD·🇺🇸 United States

打ち上げ Feb 15, 2026 から Vandenberg Space Force Base

Loading…

次のパス (今後24時間)

TLE

最新Source: CelesTrak SupGP

元期: Sep 14, 2026, 23:08 UTC

1 67801C 26032E   26257.96437500  .00063688  00000+0  19766-2 0  2579
2 67801  97.2852  84.3798 0001849  96.4943 220.4887 15.33412771    19

AllMySatでSTARLINK-36773をリアルタイム追跡

Download on the App Store